Weather History for Toledo, OH

Change the Weather History Date:

Wednesday, January 1, 2014

  Actual Average Record
Temperature  
Mean Temperature 16 °F 26 °F  
Max Temperature 17 °F 33 °F 66 °F (1876)
Min Temperature 14 °F 19 °F -15 °F (1879)
Degree Days  
Heating Degree Days 49 39  
Month to date heating degree days 49 39  
Since 1 July heating degree days 2548 2364  
Cooling Degree Days 0 0  
Month to date cooling degree days 0 0  
Year to date cooling degree days 0 0  
Moisture  
Dew Point 12 °F    
Average Humidity 86    
Maximum Humidity 92    
Minimum Humidity 80    
Precipitation  
Precipitation 0.39 in 0.08 in 1.30 in (1985)
Month to date precipitation 0.39 0.08  
Year to date precipitation 0.39 0.08  
Snow  
Snow 6.80 in 0.30 in - ()
Month to date snowfall 6.8 0.3  
Since 1 July snowfall 18.5 9.8  
Snow Depth 3.00 in    
Sea Level Pressure  
Sea Level Pressure 30.29 in    
Wind  
Wind Speed 9 mph (NE)    
Max Wind Speed 18 mph    
Max Gust Speed 22 mph    
Visibility 4 miles    
Events Snow    
T = Trace of Precipitation, MM = Missing Value Source: NWS Daily Summary

Daily Weather History Graph

Daily Weather History Graph

Search for Another Location

Airport:

Trip Planner

Search our weather history database for the weather conditions in past years. The results will help you decide how hot, cold, wet, or windy it might be!

Date:

Astronomy

Jan. 01, 2014 Rise Set
Actual Time 8:02 AM EST 5:15 PM EST
Civil Twilight 7:30 AM EST 5:47 PM EST
Nautical Twilight 6:55 AM EST 6:22 PM EST
Astronomical Twilight 6:22 AM EST 6:55 PM EST
Moon 7:50 AM EST (1/1) 6:00 PM EST (1/1)
Length of Visible Light 10h 16m
Length of Day
9h 13m
Waxing Crescent, 0% of the Moon is Illuminated
Jan 1
Waxing Crescent
Jan 7
First Quarter
Jan 15
Full
Jan 24
Last Quarter
Jan 30
New

Hourly Weather History & Observations

Time (EST) Temp. Windchill Dew Point Humidity Pressure Visibility Wind Dir Wind Speed Gust Speed Precip Events Conditions
12:11 AM 17.6 °F 10.7 °F 12.2 °F 79% 30.32 in 5.0 mi West 4.6 mph - 0.01 in Snow Light Snow
12:52 AM 16.0 °F 10.4 °F 12.9 °F 88% 30.35 in 5.0 mi NW 3.5 mph - 0.01 in Snow Light Snow
1:16 AM 15.8 °F - 12.2 °F 86% 30.30 in 4.0 mi Calm Calm - 0.00 in Snow Light Snow
1:52 AM 16.0 °F - 12.9 °F 88% 30.34 in 4.0 mi Calm Calm - 0.01 in Snow Light Snow
2:52 AM 16.0 °F - 14.0 °F 92% 30.34 in 3.0 mi Calm Calm - 0.01 in Snow Light Snow
3:04 AM 15.8 °F - 14.0 °F 93% 30.30 in 4.0 mi Calm Calm - 0.00 in Snow Light Snow
3:44 AM 17.6 °F - 14.0 °F 86% 30.30 in 3.0 mi Calm Calm - 0.01 in Snow Light Snow
3:52 AM 17.1 °F - 14.0 °F 88% 30.34 in 1.5 mi Calm Calm - 0.01 in Snow Light Snow
4:52 AM 17.1 °F 11.7 °F 14.0 °F 88% 30.33 in 1.5 mi ENE 3.5 mph - 0.02 in Snow Light Snow
5:52 AM 16.0 °F 7.4 °F 12.9 °F 88% 30.33 in 1.5 mi NE 5.8 mph - 0.02 in Snow Light Snow
6:52 AM 16.0 °F 8.8 °F 14.0 °F 92% 30.34 in 1.5 mi NE 4.6 mph - 0.02 in Snow Light Snow
7:52 AM 16.0 °F 6.3 °F 12.9 °F 88% 30.34 in 1.5 mi NE 6.9 mph - 0.02 in Snow Light Snow
8:03 AM 15.8 °F 7.2 °F 12.2 °F 86% 30.30 in 3.0 mi NE 5.8 mph - 0.00 in Snow Light Snow
8:15 AM 15.8 °F 8.6 °F 12.2 °F 86% 30.30 in 1.8 mi NE 4.6 mph - 0.01 in Snow Light Snow
8:35 AM 15.8 °F 6.1 °F 12.2 °F 86% 30.30 in 2.0 mi NE 6.9 mph - 0.01 in Snow Light Snow
8:52 AM 16.0 °F 6.3 °F 12.9 °F 88% 30.35 in 3.0 mi NE 6.9 mph - 0.01 in Snow Light Snow
8:58 AM 17.6 °F 7.3 °F 12.2 °F 79% 30.31 in 2.5 mi NE 8.1 mph - 0.00 in Snow Light Snow
9:12 AM 17.6 °F 7.3 °F 12.2 °F 79% 30.31 in 1.8 mi NE 8.1 mph - 0.01 in Snow Light Snow
9:29 AM 17.6 °F 8.2 °F 14.0 °F 86% 30.31 in 1.2 mi NE 6.9 mph - 0.01 in Snow Light Snow
9:42 AM 17.6 °F 7.3 °F 14.0 °F 86% 30.32 in 1.8 mi NE 8.1 mph - 0.02 in Snow Light Snow
9:49 AM 17.6 °F 6.4 °F 14.0 °F 86% 30.32 in 2.5 mi NE 9.2 mph - 0.02 in Snow Light Snow
9:52 AM 17.1 °F 6.6 °F 14.0 °F 88% 30.36 in 2.0 mi NE 8.1 mph - 0.02 in Snow Light Snow
10:01 AM 17.6 °F 5.7 °F 14.0 °F 86% 30.32 in 1.5 mi NE 10.4 mph - 0.00 in Snow Light Snow
10:23 AM 17.6 °F 4.3 °F 14.0 °F 86% 30.32 in 1.5 mi NE 12.7 mph - 0.01 in Snow Light Snow
10:52 AM 17.1 °F 3.6 °F 12.9 °F 84% 30.36 in 1.5 mi ENE 12.7 mph - 0.01 in Snow Light Snow
11:40 AM 17.6 °F 5.0 °F 12.2 °F 79% 30.31 in 10.0 mi ENE 11.5 mph - 0.01 in   Overcast
11:52 AM 17.1 °F 3.6 °F 12.9 °F 84% 30.35 in 10.0 mi NE 12.7 mph - 0.01 in   Overcast
12:52 PM 16.0 °F 2.9 °F 12.0 °F 84% 30.31 in 10.0 mi ENE 11.5 mph - N/A   Overcast
1:52 PM 16.0 °F 1.7 °F 10.9 °F 81% 30.29 in 9.0 mi ENE 13.8 mph - 0.00 in Snow Light Snow
2:52 PM 15.1 °F -0.1 °F 10.9 °F 84% 30.28 in 10.0 mi ENE 15.0 mph - 0.00 in   Overcast
3:45 PM 15.8 °F 1.4 °F 10.4 °F 79% 30.24 in 9.0 mi ENE 13.8 mph - 0.00 in Snow Light Snow
3:52 PM 15.1 °F -0.1 °F 10.0 °F 80% 30.28 in 9.0 mi NE 15.0 mph - 0.00 in   Overcast
4:04 PM 15.8 °F 0.9 °F 10.4 °F 79% 30.24 in 4.0 mi ENE 15.0 mph - 0.00 in Snow Light Snow
4:08 PM 15.8 °F 1.4 °F 10.4 °F 79% 30.24 in 3.0 mi NE 13.8 mph - 0.00 in Snow Light Snow
4:16 PM 15.8 °F 3.4 °F 10.4 °F 79% 30.24 in 2.5 mi NE 10.4 mph - 0.00 in Snow Light Snow
4:38 PM 14.0 °F 1.2 °F 10.4 °F 86% 30.23 in 1.5 mi NE 10.4 mph - 0.00 in Snow Light Snow
4:52 PM 14.0 °F -0.8 °F 10.9 °F 88% 30.27 in 1.5 mi NE 13.8 mph - 0.01 in Snow Light Snow
5:24 PM 14.0 °F 1.2 °F 10.4 °F 86% 30.23 in 3.0 mi NE 10.4 mph - 0.02 in Snow Light Snow
5:38 PM 14.0 °F 0.5 °F 10.4 °F 86% 30.23 in 2.5 mi NE 11.5 mph - 0.02 in Snow Light Snow
5:52 PM 14.0 °F 1.2 °F 10.9 °F 88% 30.27 in 2.0 mi NE 10.4 mph - 0.03 in Snow Light Snow
6:41 PM 14.0 °F 2.0 °F 10.4 °F 86% 30.23 in 1.8 mi NE 9.2 mph - 0.03 in Snow Light Snow
6:52 PM 14.0 °F 1.2 °F 10.9 °F 88% 30.27 in 2.0 mi NNE 10.4 mph - 0.04 in Snow Light Snow
7:52 PM 15.1 °F 1.8 °F 10.9 °F 84% 30.25 in 2.5 mi NE 11.5 mph - 0.03 in Snow Light Snow
8:52 PM 15.1 °F 2.5 °F 12.0 °F 88% 30.23 in 2.5 mi NE 10.4 mph - 0.04 in Snow Light Snow
9:10 PM 15.8 °F 3.4 °F 12.2 °F 86% 30.19 in 3.0 mi NE 10.4 mph - 0.00 in Snow Light Snow
9:35 PM 15.8 °F 5.1 °F 12.2 °F 86% 30.18 in 2.5 mi NNE 8.1 mph - 0.02 in Snow Light Snow
9:52 PM 16.0 °F 3.6 °F 12.9 °F 88% 30.21 in 3.0 mi NE 10.4 mph - 0.02 in Snow Light Snow
10:52 PM 16.0 °F 2.9 °F 12.9 °F 88% 30.20 in 5.0 mi NE 11.5 mph - 0.03 in Snow Light Snow
11:06 PM 15.8 °F 2.7 °F 12.2 °F 86% 30.15 in 4.0 mi NNE 11.5 mph - 0.00 in Snow Light Snow
11:52 PM 17.1 °F 4.3 °F 12.9 °F 84% 30.18 in 4.0 mi NE 11.5 mph - 0.02 in Snow Light Snow